Location: Central Falls
(41.8900°N, 71.3929°W)
Time: 06:02:03
(UTC+00:00)

Vanguard 3 - Pass Details

Date: 12 December 2023
Orbit: 508 x 3239 km, 33.4° (Epoch: 01 March)

Event Time Altitude Azimuth Distance (km) Brightness Sun altitude
Rises 00:00:42 0° 233° (SW) 7,181 12.8 -30.0°
Reaches altitude 10° 00:06:00 10° 228° (SW) 6,055 12.2 -31.0°
Maximum altitude 00:22:50 47° 163° (SSE) 3,052 9.8 -34.1°
Enters shadow 00:25:19 44° 139° (SE) 2,978 9.6 -34.6°
